Weather History for KMDJ - January, 2014

Change the Weather History Date:

Thursday, January 23, 2014

  Actual Average Record
Temperature  
Mean Temperature 58 °F -  
Max Temperature 60 °F - - ()
Min Temperature 55 °F - - ()
Degree Days  
Heating Degree Days 8    
Growing Degree Days 8 (Base 50)    
Moisture  
Dew Point 44 °F    
Average Humidity 60    
Maximum Humidity 77    
Minimum Humidity 42    
Precipitation  
Precipitation 0.00 in - - ()
Sea Level Pressure  
Sea Level Pressure 30.33 in    
Wind  
Wind Speed 13 mph (ENE)    
Max Wind Speed 32 mph    
Max Gust Speed 37 mph    
Visibility 10 miles    
Events      
Averages and records for this station are not official NWS values.
T = Trace of Precipitation, MM = Missing Value Source: NWS Daily Summary

Daily Weather History Graph

Daily Weather History Graph

Search for Another Location

Airport or City:

Astronomy

Jan. 23, 2014 Rise Set
Actual Time 6:51 AM CST 5:31 PM CST
Civil Twilight 6:26 AM CST 5:56 PM CST
Nautical Twilight 5:57 AM CST 6:24 PM CST
Astronomical Twilight 5:29 AM CST 6:53 PM CST
Moon No Moon Rise 11:03 AM CST (1/23)
Length of Visible Light 11h 30m
Length of Day
10h 39m
Waning Gibbous, 55% of the Moon is Illuminated
Jan 23
Waning Gibbous
Jan 23
Last Quarter
Jan 30
New
Feb 6
First Quarter
Feb 14
Full

Hourly Weather History & Observations

Time (CST) Temp. Dew Point Humidity Pressure Visibility Wind Dir Wind Speed Gust Speed Precip Events Conditions
12:15 AM 57.2 °F 37.4 °F 48% 30.22 in 10.0 mi SE 5.8 mph - N/A   Overcast
12:35 AM 57.2 °F 37.4 °F 48% 30.22 in 10.0 mi SE 6.9 mph - N/A   Overcast
12:55 AM 57.2 °F 35.6 °F 44% 30.22 in 10.0 mi SSE 6.9 mph - N/A   Overcast
1:15 AM 57.2 °F 35.6 °F 44% 30.22 in 10.0 mi SSE 6.9 mph - N/A   Overcast
1:35 AM 57.2 °F 37.4 °F 48% 30.22 in 10.0 mi SSE 5.8 mph - N/A   Overcast
1:55 AM 59.0 °F 35.6 °F 42% 30.22 in 10.0 mi South 5.8 mph - N/A   Overcast
2:15 AM 59.0 °F 37.4 °F 45% 30.22 in 10.0 mi SSE 6.9 mph - N/A   Overcast
2:35 AM 59.0 °F 39.2 °F 48% 30.23 in 10.0 mi Calm Calm - N/A   Overcast
2:55 AM 59.0 °F 37.4 °F 45% 30.21 in 10.0 mi SE 4.6 mph - N/A   Overcast
3:15 AM 59.0 °F 37.4 °F 45% 30.21 in 10.0 mi SSE 5.8 mph - N/A   Overcast
3:35 AM 59.0 °F 39.2 °F 48% 30.21 in 10.0 mi SE 6.9 mph - N/A   Overcast
3:55 AM 59.0 °F 39.2 °F 48% 30.22 in 10.0 mi SE 6.9 mph - N/A   Overcast
4:15 AM 59.0 °F 37.4 °F 45% 30.23 in 10.0 mi ESE 4.6 mph - N/A   Overcast
4:35 AM 59.0 °F 39.2 °F 48% 30.24 in 10.0 mi ESE 5.8 mph - N/A   Overcast
4:55 AM 59.0 °F 39.2 °F 48% 30.24 in 10.0 mi ESE 9.2 mph - N/A   Overcast
5:15 AM 59.0 °F 39.2 °F 48% 30.25 in 10.0 mi East 5.8 mph - N/A   Overcast
5:35 AM 57.2 °F 46.4 °F 67% 30.26 in 10.0 mi ENE 15.0 mph - N/A   Overcast
5:55 AM 57.2 °F 46.4 °F 67% 30.28 in 10.0 mi NE 17.3 mph - N/A   Overcast
6:15 AM 57.2 °F 46.4 °F 67% 30.27 in 10.0 mi ENE 18.4 mph - N/A   Mostly Cloudy
6:35 AM 57.2 °F 44.6 °F 63% 30.28 in 10.0 mi ENE 19.6 mph - N/A   Scattered Clouds
6:55 AM 57.2 °F 44.6 °F 63% 30.29 in 10.0 mi ENE 19.6 mph - N/A   Clear
7:15 AM 57.2 °F 41.0 °F 55% 30.30 in 10.0 mi ENE 19.6 mph - N/A   Clear
7:35 AM 57.2 °F 39.2 °F 51% 30.31 in 10.0 mi NE 20.7 mph - N/A   Clear
7:55 AM 57.2 °F 42.8 °F 59% 30.32 in 10.0 mi NE 21.9 mph - N/A   Clear
8:15 AM 57.2 °F 42.8 °F 59% 30.32 in 10.0 mi NE 21.9 mph - N/A   Clear
8:35 AM 57.2 °F 42.8 °F 59% 30.33 in 10.0 mi NE 20.7 mph - N/A   Clear
8:55 AM 57.2 °F 42.8 °F 59% 30.34 in 10.0 mi NE 20.7 mph - N/A   Clear
9:15 AM 57.2 °F 42.8 °F 59% 30.35 in 10.0 mi NE 21.9 mph - N/A   Clear
9:35 AM 57.2 °F 42.8 °F 59% 30.35 in 10.0 mi ENE 21.9 mph - N/A   Clear
9:55 AM 57.2 °F 44.6 °F 63% 30.37 in 10.0 mi NE 21.9 mph - N/A   Clear
10:15 AM 57.2 °F 42.8 °F 59% 30.39 in 10.0 mi NE 20.7 mph - N/A   Clear
10:35 AM 57.2 °F 44.6 °F 63% 30.38 in 10.0 mi NE 19.6 mph - N/A   Clear
10:55 AM 57.2 °F 44.6 °F 63% 30.36 in 10.0 mi NE 19.6 mph - N/A   Clear
11:15 AM 57.2 °F 46.4 °F 67% 30.36 in 10.0 mi NE 17.3 mph 23.0 mph N/A   Clear
11:35 AM 57.2 °F 46.4 °F 67% 30.36 in 10.0 mi NE 19.6 mph - N/A   Clear
11:55 AM 57.2 °F 46.4 °F 67% 30.36 in 10.0 mi NE 18.4 mph - N/A   Clear
12:15 PM 59.0 °F 46.4 °F 63% 30.35 in 10.0 mi NE 16.1 mph - N/A   Clear
12:35 PM 60.8 °F 44.6 °F 55% 30.34 in 10.0 mi East 15.0 mph - N/A   Clear
12:55 PM 60.8 °F 44.6 °F 55% 30.32 in 10.0 mi ESE 16.1 mph - N/A   Clear
1:15 PM 60.8 °F 46.4 °F 59% 30.33 in 10.0 mi East 17.3 mph - N/A   Scattered Clouds
1:35 PM 60.8 °F 46.4 °F 59% 30.34 in 10.0 mi ENE 16.1 mph - N/A   Mostly Cloudy
1:55 PM 60.8 °F 44.6 °F 55% 30.33 in 10.0 mi East 18.4 mph - N/A   Scattered Clouds
2:15 PM 60.8 °F 44.6 °F 55% 30.33 in 10.0 mi ENE 16.1 mph - N/A   Partly Cloudy
2:35 PM 59.0 °F 46.4 °F 63% 30.34 in 10.0 mi NE 21.9 mph - N/A   Mostly Cloudy
2:55 PM 59.0 °F 48.2 °F 67% 30.35 in 10.0 mi NE 23.0 mph - N/A   Mostly Cloudy
3:15 PM 59.0 °F 46.4 °F 63% 30.35 in 10.0 mi NE 21.9 mph - N/A   Mostly Cloudy
3:35 PM 59.0 °F 48.2 °F 67% 30.35 in 10.0 mi ENE 23.0 mph - N/A   Scattered Clouds
3:55 PM 59.0 °F 48.2 °F 67% 30.36 in 10.0 mi East 21.9 mph - N/A   Scattered Clouds
4:15 PM 59.0 °F 46.4 °F 63% 30.37 in 10.0 mi ENE 20.7 mph - N/A   Partly Cloudy
4:35 PM 59.0 °F 46.4 °F 63% 30.36 in 10.0 mi ENE 20.7 mph - N/A   Clear
4:55 PM 59.0 °F 46.4 °F 63% 30.37 in 10.0 mi ENE 19.6 mph - N/A   Clear
5:15 PM 59.0 °F 46.4 °F 63% 30.37 in 10.0 mi ENE 20.7 mph - N/A   Clear
5:35 PM 59.0 °F 48.2 °F 67% 30.38 in 10.0 mi ENE 18.4 mph - N/A   Clear
5:55 PM 59.0 °F 48.2 °F 67% 30.38 in - ENE 20.7 mph - N/A   Partly Cloudy
6:15 PM 59.0 °F 48.2 °F 67% 30.38 in 10.0 mi ENE 21.9 mph - N/A   Partly Cloudy
6:35 PM 59.0 °F 48.2 °F 67% 30.38 in 10.0 mi East 19.6 mph - N/A   Clear
6:55 PM 59.0 °F 50.0 °F 72% 30.38 in 10.0 mi ENE 17.3 mph - N/A   Partly Cloudy
7:15 PM 60.8 °F 50.0 °F 68% 30.39 in 10.0 mi East 19.6 mph - N/A   Partly Cloudy
7:35 PM 60.8 °F 50.0 °F 68% 30.39 in 10.0 mi East 17.3 mph - N/A   Partly Cloudy
7:55 PM 60.8 °F 50.0 °F 68% 30.39 in 10.0 mi East 19.6 mph 25.3 mph N/A   Mostly Cloudy
8:15 PM 59.0 °F 51.8 °F 77% 30.40 in 10.0 mi ENE 18.4 mph - N/A   Mostly Cloudy
8:35 PM 59.0 °F 51.8 °F 77% 30.40 in 10.0 mi East 19.6 mph - N/A   Scattered Clouds
8:55 PM 60.8 °F 50.0 °F 68% 30.41 in 10.0 mi East 17.3 mph - N/A   Mostly Cloudy
9:15 PM 60.8 °F 50.0 °F 68% 30.41 in 10.0 mi ENE 19.6 mph - N/A   Overcast
9:35 PM 59.0 °F 51.8 °F 77% 30.43 in 10.0 mi NE 21.9 mph - N/A   Overcast
9:55 PM 59.0 °F 50.0 °F 72% 30.44 in 10.0 mi NE 25.3 mph 31.1 mph N/A   Overcast
10:15 PM 57.2 °F 48.2 °F 72% 30.44 in 10.0 mi NE 27.6 mph 33.4 mph N/A   Mostly Cloudy
10:35 PM 57.2 °F 44.6 °F 63% 30.45 in 10.0 mi NE 27.6 mph - N/A   Scattered Clouds
10:55 PM 57.2 °F 44.6 °F 63% 30.46 in 10.0 mi NE 29.9 mph - N/A   Partly Cloudy
11:15 PM 57.2 °F 42.8 °F 59% 30.46 in 10.0 mi NNE 27.6 mph 36.8 mph N/A   Scattered Clouds
11:35 PM 55.4 °F 42.8 °F 63% 30.46 in 10.0 mi NNE 32.2 mph - N/A   Mostly Cloudy
11:55 PM 55.4 °F 41.0 °F 58% 30.47 in 10.0 mi North - - N/A   Partly Cloudy